| time (UTC) | temp F | wind direction | speed MPH | gust MPH | rain 1hr in | rain 24hr in | rain mn in | humidity % | barometer mb |
| 20260507213414 | 85 | 86 | 0.0 | 1.0 | 0.00 | 0.00 | 0.00 | 87 | 1007.0 |
| 20260507212915 | 85 | 91 | 0.0 | 1.0 | 0.00 | 0.00 | 0.00 | 87 | 1007.0 |
| 20260507212417 | 85 | 67 | 0.0 | 4.0 | 0.00 | 0.00 | 0.00 | 87 | 1007.0 |
| 20260507211916 | 85 | 75 | 0.0 | 6.0 | 0.00 | 0.00 | 0.00 | 87 | 1007.0 |
| 20260507211414 | 85 | 65 | 0.0 | 7.0 | 0.00 | 0.00 | 0.00 | 87 | 1007.0 |
| 20260507210913 | 85 | 56 | 0.0 | 7.0 | 0.00 | 0.00 | 0.00 | 87 | 1007.0 |
| 20260507210414 | 85 | 104 | 0.0 | 1.0 | 0.00 | 0.00 | 0.00 | 88 | 1007.0 |
| 20260507205914 | 85 | 76 | 0.0 | 1.0 | 0.00 | 0.00 | 0.00 | 88 | 1007.0 |
| 20260507205413 | 85 | 77 | 0.0 | 1.0 | 0.00 | 0.00 | 0.00 | 87 | 1007.0 |
| 20260507204914 | 85 | 75 | 0.0 | 1.0 | 0.00 | 0.00 | 0.00 | 87 | 1007.0 |
| 20260507204416 | 85 | 86 | 0.0 | 1.0 | 0.00 | 0.00 | 0.00 | 87 | 1007.0 |
| 20260507203916 | 85 | 72 | 0.0 | 0.0 | 0.00 | 0.00 | 0.00 | 87 | 1007.0 |
| 20260507203416 | 85 | 139 | 0.0 | 0.0 | 0.00 | 0.00 | 0.00 | 87 | 1007.0 |
| 20260507202914 | 85 | 65 | 0.0 | 4.0 | 0.00 | 0.00 | 0.00 | 87 | 1007.0 |
| 20260507202415 | 85 | 84 | 0.0 | 4.0 | 0.00 | 0.00 | 0.00 | 87 | 1007.0 |
| 20260507201914 | 85 | 84 | 0.0 | 5.0 | 0.00 | 0.00 | 0.00 | 87 | 1007.0 |
| 20260507201413 | 85 | 82 | 2.0 | 3.0 | 0.00 | 0.00 | 0.00 | 87 | 1007.0 |
| 20260507200915 | 85 | 89 | 0.0 | 5.0 | 0.00 | 0.00 | 0.00 | 87 | 1007.0 |
| 20260507200414 | 85 | 84 | 0.0 | 5.0 | 0.00 | 0.00 | 0.00 | 87 | 1008.0 |
| 20260507195913 | 85 | 76 | 0.0 | 5.0 | 0.00 | 0.00 | 0.00 | 87 | 1008.0 |
| 20260507195416 | 85 | 94 | 0.0 | 8.0 | 0.00 | 0.00 | 0.00 | 87 | 1008.0 |
| 20260507194914 | 85 | 74 | 3.0 | 8.0 | 0.00 | 0.00 | 0.00 | 87 | 1008.0 |
| 20260507194415 | 85 | 96 | 4.0 | 6.0 | 0.00 | 0.00 | 0.00 | 87 | 1008.0 |
| 20260507193918 | 85 | 72 | 0.0 | 5.0 | 0.00 | 0.00 | 0.00 | 87 | 1008.0 |
| 20260507193415 | 85 | 77 | 0.0 | 5.0 | 0.00 | 0.00 | 0.00 | 87 | 1008.0 |
| 20260507192915 | 85 | 90 | 0.0 | 4.0 | 0.00 | 0.00 | 0.00 | 87 | 1008.0 |
| 20260507192415 | 85 | 86 | 0.0 | 6.0 | 0.00 | 0.00 | 0.00 | 88 | 1008.0 |
| 20260507191917 | 85 | 96 | 0.0 | 6.0 | 0.00 | 0.00 | 0.00 | 88 | 1008.0 |
| 20260507191416 | 85 | 98 | 0.0 | 6.0 | 0.00 | 0.00 | 0.00 | 87 | 1008.0 |
| 20260507190914 | 86 | 127 | 0.0 | 5.0 | 0.00 | 0.00 | 0.00 | 87 | 1008.0 |
| 20260507190416 | 86 | 91 | 0.0 | 8.0 | 0.00 | 0.00 | 0.00 | 87 | 1008.0 |
| 20260507185913 | 86 | 113 | 0.0 | 8.0 | 0.00 | 0.00 | 0.00 | 87 | 1008.0 |
| 20260507185414 | 86 | 102 | 0.0 | 8.0 | 0.00 | 0.00 | 0.00 | 87 | 1008.0 |
| 20260507184915 | 86 | 56 | 3.0 | 8.0 | 0.00 | 0.00 | 0.00 | 87 | 1008.0 |
| 20260507184417 | 86 | 117 | 0.0 | 8.0 | 0.00 | 0.00 | 0.00 | 86 | 1008.0 |
| 20260507183915 | 86 | 82 | 0.0 | 5.0 | 0.00 | 0.00 | 0.00 | 86 | 1008.0 |
| 20260507183416 | 86 | 122 | 3.0 | 12.0 | 0.00 | 0.00 | 0.00 | 86 | 1008.0 |
| 20260507182917 | 86 | 82 | 5.0 | 12.0 | 0.00 | 0.00 | 0.00 | 85 | 1009.0 |
| 20260507182416 | 86 | 79 | 4.0 | 9.0 | 0.00 | 0.00 | 0.00 | 85 | 1009.0 |
| 20260507181915 | 86 | 96 | 1.0 | 10.0 | 0.00 | 0.00 | 0.00 | 85 | 1009.0 |
| 20260507181419 | 86 | 89 | 6.0 | 10.0 | 0.00 | 0.00 | 0.00 | 85 | 1009.0 |
| 20260507180915 | 86 | 101 | 2.0 | 10.0 | 0.00 | 0.00 | 0.00 | 85 | 1009.0 |
| 20260507180417 | 86 | 82 | 4.0 | 12.0 | 0.00 | 0.00 | 0.00 | 85 | 1009.0 |
| 20260507175915 | 86 | 76 | 0.0 | 12.0 | 0.00 | 0.00 | 0.00 | 85 | 1009.0 |
| 20260507175416 | 86 | 106 | 0.0 | 7.0 | 0.00 | 0.00 | 0.00 | 86 | 1009.0 |
| 20260507174916 | 86 | 134 | 0.0 | 7.0 | 0.00 | 0.00 | 0.00 | 86 | 1009.0 |
| 20260507174416 | 86 | 121 | 1.0 | 9.0 | 0.00 | 0.00 | 0.00 | 86 | 1009.0 |
| 20260507173915 | 86 | 108 | 2.0 | 11.0 | 0.00 | 0.00 | 0.00 | 86 | 1009.0 |
| 20260507173415 | 86 | 88 | 5.0 | 11.0 | 0.00 | 0.00 | 0.00 | 86 | 1009.0 |
| 20260507172916 | 86 | 70 | 6.0 | 11.0 | 0.00 | 0.00 | 0.00 | 86 | 1009.0 |
| 20260507172415 | 86 | 91 | 2.0 | 11.0 | 0.00 | 0.00 | 0.00 | 86 | 1009.0 |
| 20260507171914 | 86 | 82 | 3.0 | 11.0 | 0.00 | 0.00 | 0.00 | 86 | 1009.0 |
| 20260507171414 | 86 | 76 | 4.0 | 9.0 | 0.00 | 0.00 | 0.00 | 86 | 1009.0 |
| 20260507170914 | 86 | 101 | 4.0 | 9.0 | 0.00 | 0.00 | 0.00 | 86 | 1009.0 |
| 20260507170416 | 86 | 81 | 1.0 | 6.0 | 0.00 | 0.00 | 0.00 | 86 | 1009.0 |
| 20260507165915 | 86 | 100 | 0.0 | 8.0 | 0.00 | 0.00 | 0.00 | 86 | 1009.0 |
| 20260507165417 | 86 | 88 | 5.0 | 9.0 | 0.00 | 0.00 | 0.00 | 86 | 1009.0 |
| 20260507164915 | 86 | 93 | 4.0 | 9.0 | 0.00 | 0.00 | 0.00 | 85 | 1009.0 |
| 20260507164413 | 86 | 96 | 0.0 | 5.0 | 0.00 | 0.00 | 0.00 | 84 | 1009.0 |
| 20260507163914 | 86 | 102 | 0.0 | 7.0 | 0.00 | 0.00 | 0.00 | 84 | 1009.0 |
| 20260507163415 | 86 | 61 | 0.0 | 10.0 | 0.00 | 0.00 | 0.00 | 84 | 1009.0 |
| 20260507162917 | 86 | 74 | 0.0 | 10.0 | 0.00 | 0.00 | 0.00 | 84 | 1009.0 |
| 20260507162415 | 86 | 70 | 3.0 | 10.0 | 0.00 | 0.00 | 0.00 | 84 | 1009.0 |
| 20260507161915 | 86 | 116 | 0.0 | 7.0 | 0.00 | 0.00 | 0.00 | 84 | 1009.0 |
| 20260507161417 | 86 | 77 | 4.0 | 6.0 | 0.00 | 0.00 | 0.00 | 84 | 1009.0 |
| 20260507160919 | 86 | 113 | 3.0 | 6.0 | 0.00 | 0.00 | 0.00 | 84 | 1009.0 |
| 20260507160416 | 86 | 73 | 3.0 | 6.0 | 0.00 | 0.00 | 0.00 | 84 | 1009.0 |
| 20260507155914 | 86 | 72 | 6.0 | 7.0 | 0.00 | 0.00 | 0.00 | 84 | 1009.0 |
| 20260507155417 | 86 | 73 | 3.0 | 7.0 | 0.00 | 0.00 | 0.00 | 85 | 1009.0 |
| 20260507154916 | 86 | 92 | 3.0 | 7.0 | 0.00 | 0.00 | 0.00 | 85 | 1009.0 |
| 20260507154415 | 86 | 50 | 4.0 | 6.0 | 0.00 | 0.00 | 0.00 | 85 | 1008.0 |
| 20260507153915 | 86 | 86 | 0.0 | 6.0 | 0.00 | 0.00 | 0.00 | 85 | 1008.0 |
| 20260507153416 | 86 | 101 | 0.0 | 6.0 | 0.00 | 0.00 | 0.00 | 85 | 1008.0 |
| 20260507152915 | 86 | 91 | 2.0 | 6.0 | 0.00 | 0.00 | 0.00 | 84 | 1008.0 |
| 20260507152418 | 86 | 103 | 0.0 | 7.0 | 0.00 | 0.00 | 0.00 | 84 | 1008.0 |
| 20260507151915 | 86 | 57 | 5.0 | 9.0 | 0.00 | 0.00 | 0.00 | 84 | 1008.0 |
| 20260507151416 | 86 | 88 | 0.0 | 9.0 | 0.00 | 0.00 | 0.00 | 83 | 1008.0 |
| 20260507150917 | 86 | 75 | 7.0 | 9.0 | 0.00 | 0.00 | 0.00 | 83 | 1008.0 |
| 20260507150417 | 86 | 69 | 6.0 | 10.0 | 0.00 | 0.00 | 0.00 | 84 | 1007.0 |
| 20260507145913 | 87 | 80 | 1.0 | 11.0 | 0.00 | 0.00 | 0.00 | 84 | 1007.0 |
| 20260507145417 | 86 | 84 | 1.0 | 11.0 | 0.00 | 0.00 | 0.00 | 84 | 1007.0 |
| 20260507144915 | 87 | 53 | 5.0 | 11.0 | 0.00 | 0.00 | 0.00 | 84 | 1007.0 |
| 20260507144415 | 87 | 68 | 4.0 | 11.0 | 0.00 | 0.00 | 0.00 | 84 | 1007.0 |
| 20260507143916 | 86 | 91 | 7.0 | 12.0 | 0.00 | 0.00 | 0.00 | 85 | 1007.0 |
| 20260507143416 | 87 | 68 | 0.0 | 12.0 | 0.00 | 0.00 | 0.00 | 85 | 1007.0 |
| 20260507142916 | 87 | 91 | 3.0 | 12.0 | 0.00 | 0.00 | 0.00 | 85 | 1007.0 |
| 20260507142416 | 87 | 66 | 1.0 | 8.0 | 0.00 | 0.00 | 0.00 | 85 | 1006.0 |
| 20260507141915 | 87 | 86 | 7.0 | 10.0 | 0.00 | 0.00 | 0.00 | 85 | 1006.0 |
| 20260507141416 | 87 | 78 | 3.0 | 10.0 | 0.00 | 0.00 | 0.00 | 84 | 1006.0 |
| 20260507140914 | 87 | 110 | 6.0 | 10.0 | 0.00 | 0.00 | 0.00 | 84 | 1006.0 |
| 20260507140416 | 87 | 79 | 4.0 | 9.0 | 0.00 | 0.00 | 0.00 | 83 | 1006.0 |
| 20260507135915 | 87 | 70 | 7.0 | 8.0 | 0.00 | 0.00 | 0.00 | 83 | 1006.0 |
| 20260507135415 | 87 | 60 | 3.0 | 11.0 | 0.00 | 0.00 | 0.00 | 84 | 1006.0 |
| 20260507134915 | 87 | 77 | 4.0 | 11.0 | 0.00 | 0.00 | 0.00 | 84 | 1006.0 |
| 20260507134419 | 87 | 96 | 0.0 | 10.0 | 0.00 | 0.00 | 0.00 | 85 | 1006.0 |
| 20260507133915 | 87 | 86 | 5.0 | 11.0 | 0.00 | 0.00 | 0.00 | 84 | 1006.0 |
| 20260507133420 | 87 | 86 | 9.0 | 11.0 | 0.00 | 0.00 | 0.00 | 84 | 1006.0 |
| 20260507132916 | 87 | 75 | 5.0 | 8.0 | 0.00 | 0.00 | 0.00 | 84 | 1006.0 |
| 20260507132415 | 87 | 66 | 0.0 | 10.0 | 0.00 | 0.00 | 0.00 | 84 | 1006.0 |
| 20260507131916 | 87 | 80 | 3.0 | 12.0 | 0.00 | 0.00 | 0.00 | 84 | 1006.0 |
| 20260507131417 | 87 | 98 | 10.0 | 12.0 | 0.00 | 0.00 | 0.00 | 84 | 1005.0 |
| 20260507130915 | 87 | 63 | 8.0 | 8.0 | 0.00 | 0.00 | 0.00 | 84 | 1006.0 |
| 20260507130417 | 87 | 79 | 0.0 | 9.0 | 0.00 | 0.00 | 0.00 | 83 | 1005.0 |
| 20260507125917 | 87 | 67 | 2.0 | 9.0 | 0.00 | 0.00 | 0.00 | 83 | 1005.0 |
| 20260507125417 | 88 | 95 | 3.0 | 11.0 | 0.00 | 0.00 | 0.00 | 82 | 1005.0 |
| 20260507124916 | 88 | 58 | 1.0 | 11.0 | 0.00 | 0.00 | 0.00 | 82 | 1005.0 |
| 20260507124417 | 88 | 63 | 2.0 | 9.0 | 0.00 | 0.00 | 0.00 | 83 | 1005.0 |
| 20260507123917 | 88 | 98 | 0.0 | 10.0 | 0.00 | 0.00 | 0.00 | 83 | 1005.0 |
| 20260507123415 | 88 | 79 | 5.0 | 11.0 | 0.00 | 0.00 | 0.00 | 82 | 1005.0 |
| 20260507122915 | 88 | 86 | 5.0 | 11.0 | 0.00 | 0.00 | 0.00 | 81 | 1005.0 |
| 20260507122414 | 88 | 124 | 6.0 | 11.0 | 0.00 | 0.00 | 0.00 | 81 | 1005.0 |
| 20260507121915 | 89 | 101 | 4.0 | 11.0 | 0.00 | 0.00 | 0.00 | 81 | 1005.0 |
| 20260507121413 | 89 | 75 | 1.0 | 11.0 | 0.00 | 0.00 | 0.00 | 80 | 1005.0 |
| 20260507120913 | 89 | 66 | 6.0 | 11.0 | 0.00 | 0.00 | 0.00 | 80 | 1005.0 |
| 20260507120415 | 89 | 61 | 6.0 | 11.0 | 0.00 | 0.00 | 0.00 | 80 | 1005.0 |
| 20260507115917 | 89 | 96 | 6.0 | 10.0 | 0.00 | 0.00 | 0.00 | 80 | 1005.0 |
| 20260507115416 | 89 | 84 | 6.0 | 11.0 | 0.00 | 0.00 | 0.00 | 79 | 1005.0 |
| 20260507114916 | 89 | 63 | 4.0 | 11.0 | 0.00 | 0.00 | 0.00 | 79 | 1005.0 |
| 20260507114418 | 89 | 90 | 4.0 | 11.0 | 0.00 | 0.00 | 0.00 | 79 | 1005.0 |
| 20260507113915 | 90 | 89 | 2.0 | 10.0 | 0.00 | 0.00 | 0.00 | 79 | 1005.0 |
| 20260507113415 | 89 | 61 | 7.0 | 12.0 | 0.00 | 0.00 | 0.00 | 79 | 1005.0 |
| 20260507112916 | 90 | 113 | 2.0 | 12.0 | 0.00 | 0.00 | 0.00 | 78 | 1005.0 |
| 20260507112416 | 90 | 124 | 2.0 | 11.0 | 0.00 | 0.00 | 0.00 | 78 | 1005.0 |
| 20260507111914 | 90 | 68 | 4.0 | 11.0 | 0.00 | 0.00 | 0.00 | 78 | 1005.0 |
| 20260507111417 | 90 | 92 | 8.0 | 13.0 | 0.00 | 0.00 | 0.00 | 77 | 1005.0 |
| 20260507110916 | 90 | 91 | 7.0 | 13.0 | 0.00 | 0.00 | 0.00 | 77 | 1005.0 |
| 20260507110415 | 91 | 133 | 3.0 | 13.0 | 0.00 | 0.00 | 0.00 | 79 | 1005.0 |
| 20260507105914 | 91 | 98 | 8.0 | 11.0 | 0.00 | 0.00 | 0.00 | 77 | 1005.0 |
| 20260507105416 | 90 | 96 | 4.0 | 12.0 | 0.00 | 0.00 | 0.00 | 78 | 1005.0 |
| 20260507104918 | 91 | 89 | 5.0 | 12.0 | 0.00 | 0.00 | 0.00 | 77 | 1005.0 |
| 20260507104415 | 91 | 79 | 11.0 | 13.0 | 0.00 | 0.00 | 0.00 | 75 | 1005.0 |
| 20260507103914 | 91 | 65 | 6.0 | 13.0 | 0.00 | 0.00 | 0.00 | 76 | 1005.0 |
| 20260507103417 | 91 | 94 | 6.0 | 11.0 | 0.00 | 0.00 | 0.00 | 77 | 1005.0 |
| 20260507102916 | 91 | 68 | 10.0 | 12.0 | 0.00 | 0.00 | 0.00 | 76 | 1005.0 |
| 20260507102416 | 91 | 66 | 0.0 | 12.0 | 0.00 | 0.00 | 0.00 | 75 | 1005.0 |
| 20260507101433 | 91 | 72 | 9.0 | 13.0 | 0.00 | 0.00 | 0.00 | 75 | 1005.0 |
| 20260507100914 | 92 | 72 | 11.0 | 13.0 | 0.00 | 0.00 | 0.00 | 74 | 1005.0 |
| 20260507100415 | 92 | 89 | 1.0 | 13.0 | 0.00 | 0.00 | 0.00 | 75 | 1005.0 |
| 20260507095915 | 92 | 82 | 6.0 | 11.0 | 0.00 | 0.00 | 0.00 | 73 | 1005.0 |
| 20260507095416 | 92 | 39 | 6.0 | 10.0 | 0.00 | 0.00 | 0.00 | 73 | 1005.0 |
| 20260507094917 | 92 | 57 | 0.0 | 14.0 | 0.00 | 0.00 | 0.00 | 73 | 1005.0 |
| 20260507094416 | 92 | 124 | 0.0 | 14.0 | 0.00 | 0.00 | 0.00 | 73 | 1005.0 |
| 20260507093914 | 92 | 53 | 13.0 | 15.0 | 0.00 | 0.00 | 0.00 | 74 | 1006.0 |
| 20260507093415 | 91 | 88 | 7.0 | 15.0 | 0.00 | 0.00 | 0.00 | 74 | 1005.0 |
| 20260507092915 | 92 | 69 | 8.0 | 13.0 | 0.00 | 0.00 | 0.00 | 74 | 1005.0 |
| 20260507092413 | 92 | 41 | 2.0 | 13.0 | 0.00 | 0.00 | 0.00 | 74 | 1005.0 |
| 20260507091915 | 92 | 58 | 0.0 | 12.0 | 0.00 | 0.00 | 0.00 | 74 | 1005.0 |
| 20260507091414 | 92 | 82 | 7.0 | 12.0 | 0.00 | 0.00 | 0.00 | 74 | 1005.0 |
| 20260507090915 | 92 | 112 | 8.0 | 14.0 | 0.00 | 0.00 | 0.00 | 74 | 1006.0 |
| 20260507090415 | 92 | 102 | 11.0 | 14.0 | 0.00 | 0.00 | 0.00 | 75 | 1005.0 |
| 20260507085913 | 92 | 77 | 5.0 | 14.0 | 0.00 | 0.00 | 0.00 | 74 | 1006.0 |
| 20260507085415 | 92 | 50 | 4.0 | 14.0 | 0.00 | 0.00 | 0.00 | 74 | 1006.0 |
| 20260507084917 | 92 | 84 | 9.0 | 14.0 | 0.00 | 0.00 | 0.00 | 74 | 1006.0 |
| 20260507084415 | 92 | 105 | 5.0 | 14.0 | 0.00 | 0.00 | 0.00 | 74 | 1006.0 |
| 20260507083918 | 92 | 93 | 4.0 | 15.0 | 0.00 | 0.00 | 0.00 | 73 | 1006.0 |
| 20260507083415 | 92 | 81 | 7.0 | 15.0 | 0.00 | 0.00 | 0.00 | 74 | 1006.0 |
| 20260507082913 | 92 | 82 | 9.0 | 13.0 | 0.00 | 0.00 | 0.00 | 75 | 1006.0 |
| 20260507082416 | 92 | 65 | 2.0 | 13.0 | 0.00 | 0.00 | 0.00 | 74 | 1006.0 |
| 20260507081918 | 93 | 113 | 6.0 | 11.0 | 0.00 | 0.00 | 0.00 | 72 | 1006.0 |
| 20260507081417 | 93 | 82 | 0.0 | 10.0 | 0.00 | 0.00 | 0.00 | 72 | 1006.0 |
| 20260507080914 | 94 | 85 | 5.0 | 13.0 | 0.00 | 0.00 | 0.00 | 71 | 1006.0 |
| 20260507080416 | 93 | 96 | 0.0 | 13.0 | 0.00 | 0.00 | 0.00 | 71 | 1006.0 |
| 20260507075916 | 93 | 143 | 1.0 | 13.0 | 0.00 | 0.00 | 0.00 | 71 | 1006.0 |
| 20260507075414 | 93 | 93 | 0.0 | 13.0 | 0.00 | 0.00 | 0.00 | 71 | 1006.0 |
| 20260507074918 | 93 | 117 | 8.0 | 14.0 | 0.00 | 0.00 | 0.00 | 71 | 1007.0 |
| 20260507074414 | 93 | 75 | 3.0 | 14.0 | 0.00 | 0.00 | 0.00 | 70 | 1007.0 |
| 20260507073915 | 94 | 69 | 0.0 | 10.0 | 0.00 | 0.00 | 0.00 | 68 | 1007.0 |
| 20260507073417 | 94 | 68 | 7.0 | 10.0 | 0.00 | 0.00 | 0.00 | 69 | 1007.0 |
| 20260507072915 | 94 | 105 | 5.0 | 10.0 | 0.00 | 0.00 | 0.00 | 68 | 1007.0 |
| 20260507072415 | 94 | 68 | 1.0 | 9.0 | 0.00 | 0.00 | 0.00 | 69 | 1007.0 |
| 20260507071915 | 93 | 201 | 0.0 | 12.0 | 0.00 | 0.00 | 0.00 | 70 | 1007.0 |
| 20260507071414 | 93 | 48 | 2.0 | 12.0 | 0.00 | 0.00 | 0.00 | 70 | 1007.0 |
| 20260507070914 | 93 | 160 | 7.0 | 14.0 | 0.00 | 0.00 | 0.00 | 70 | 1007.0 |
| 20260507070417 | 93 | 89 | 8.0 | 14.0 | 0.00 | 0.00 | 0.00 | 70 | 1007.0 |
| 20260507065918 | 93 | 135 | 6.0 | 13.0 | 0.00 | 0.00 | 0.00 | 70 | 1007.0 |
| 20260507065416 | 93 | 118 | 5.0 | 13.0 | 0.00 | 0.00 | 0.00 | 71 | 1008.0 |
| 20260507064915 | 93 | 139 | 0.0 | 10.0 | 0.00 | 0.00 | 0.00 | 71 | 1008.0 |
| 20260507064416 | 92 | 104 | 0.0 | 9.0 | 0.00 | 0.00 | 0.00 | 72 | 1008.0 |
| 20260507063917 | 92 | 80 | 0.0 | 4.0 | 0.00 | 0.00 | 0.00 | 71 | 1008.0 |
| 20260507063415 | 92 | 82 | 0.0 | 8.0 | 0.00 | 0.00 | 0.00 | 71 | 1008.0 |
| 20260507062915 | 92 | 205 | 0.0 | 8.0 | 0.00 | 0.00 | 0.00 | 72 | 1008.0 |
| 20260507062416 | 92 | 91 | 4.0 | 7.0 | 0.00 | 0.00 | 0.00 | 71 | 1008.0 |
| 20260507061920 | 93 | 82 | 2.0 | 7.0 | 0.00 | 0.00 | 0.00 | 72 | 1008.0 |
| 20260507061414 | 92 | 188 | 0.0 | 0.0 | 0.00 | 0.00 | 0.00 | 75 | 1008.0 |
| 20260507060916 | 91 | 113 | 0.0 | 0.0 | 0.00 | 0.00 | 0.00 | 75 | 1008.0 |
| 20260507060413 | 91 | 116 | 0.0 | 4.0 | 0.00 | 0.00 | 0.00 | 76 | 1008.0 |
| 20260507055914 | 91 | 103 | 0.0 | 5.0 | 0.00 | 0.00 | 0.00 | 77 | 1008.0 |
| 20260507055413 | 91 | 151 | 0.0 | 7.0 | 0.00 | 0.00 | 0.00 | 76 | 1008.0 |
| 20260507054914 | 91 | 148 | 0.0 | 7.0 | 0.00 | 0.00 | 0.00 | 76 | 1008.0 |
| 20260507054417 | 91 | 120 | 0.0 | 7.0 | 0.00 | 0.00 | 0.00 | 75 | 1008.0 |
| 20260507053917 | 92 | 131 | 1.0 | 7.0 | 0.00 | 0.00 | 0.00 | 76 | 1008.0 |
| 20260507053415 | 91 | 133 | 1.0 | 7.0 | 0.00 | 0.00 | 0.00 | 76 | 1008.0 |
| 20260507052916 | 91 | 105 | 0.0 | 5.0 | 0.00 | 0.00 | 0.00 | 76 | 1008.0 |
| 20260507052418 | 91 | 90 | 0.0 | 5.0 | 0.00 | 0.00 | 0.00 | 75 | 1008.0 |
| 20260507051913 | 90 | 117 | 0.0 | 4.0 | 0.00 | 0.00 | 0.00 | 75 | 1008.0 |
| 20260507051416 | 91 | 134 | 0.0 | 6.0 | 0.00 | 0.00 | 0.00 | 75 | 1008.0 |
| 20260507050917 | 91 | 108 | 0.0 | 6.0 | 0.00 | 0.00 | 0.00 | 75 | 1009.0 |
| 20260507050418 | 92 | 153 | 0.0 | 1.0 | 0.00 | 0.00 | 0.00 | 75 | 1009.0 |
| 20260507045914 | 92 | 162 | 0.0 | 5.0 | 0.00 | 0.00 | 0.00 | 75 | 1009.0 |
| 20260507045413 | 91 | 203 | 0.0 | 6.0 | 0.00 | 0.00 | 0.00 | 77 | 1009.0 |
| 20260507044913 | 91 | 203 | 2.0 | 6.0 | 0.00 | 0.00 | 0.00 | 77 | 1009.0 |
| 20260507044413 | 90 | 131 | 0.0 | 4.0 | 0.00 | 0.00 | 0.00 | 79 | 1009.0 |
| 20260507043914 | 89 | 281 | 0.0 | 4.0 | 0.00 | 0.00 | 0.00 | 80 | 1009.0 |
| 20260507043415 | 89 | 274 | 0.0 | 4.0 | 0.00 | 0.00 | 0.00 | 80 | 1009.0 |
| 20260507042914 | 90 | 276 | 0.0 | 5.0 | 0.00 | 0.00 | 0.00 | 80 | 1009.0 |
| 20260507042415 | 90 | 276 | 0.0 | 6.0 | 0.00 | 0.00 | 0.00 | 78 | 1009.0 |
| 20260507041915 | 91 | 248 | 0.0 | 6.0 | 0.00 | 0.00 | 0.00 | 78 | 1009.0 |
| 20260507041415 | 91 | 243 | 1.0 | 3.0 | 0.00 | 0.00 | 0.00 | 77 | 1009.0 |
| 20260507040913 | 91 | 229 | 0.0 | 0.0 | 0.00 | 0.00 | 0.00 | 78 | 1009.0 |
| 20260507040413 | 91 | 259 | 0.0 | 3.0 | 0.00 | 0.00 | 0.00 | 77 | 1009.0 |
| 20260507035914 | 91 | 195 | 0.0 | 3.0 | 0.00 | 0.00 | 0.00 | 79 | 1009.0 |
| 20260507035417 | 90 | 210 | 0.0 | 5.0 | 0.00 | 0.00 | 0.00 | 79 | 1009.0 |
| 20260507034450 | 89 | 158 | 3.0 | 3.0 | 0.00 | 0.00 | 0.00 | 82 | 1009.0 |
| 20260507033913 | 88 | 276 | 0.0 | 0.0 | 0.00 | 0.00 | 0.00 | 83 | 1009.0 |
| 20260507033413 | 88 | 127 | 0.0 | 2.0 | 0.00 | 0.00 | 0.00 | 82 | 1009.0 |
| 20260507032914 | 89 | 148 | 0.0 | 5.0 | 0.00 | 0.00 | 0.00 | 83 | 1009.0 |
| 20260507032414 | 89 | 203 | 0.0 | 5.0 | 0.00 | 0.00 | 0.00 | 83 | 1009.0 |
| 20260507031914 | 89 | 276 | 1.0 | 3.0 | 0.00 | 0.00 | 0.00 | 83 | 1009.0 |
| 20260507031415 | 89 | 134 | 0.0 | 1.0 | 0.00 | 0.00 | 0.00 | 83 | 1009.0 |
| 20260507030915 | 88 | 255 | 0.0 | 2.0 | 0.00 | 0.00 | 0.00 | 83 | 1009.0 |
| 20260507030416 | 88 | 136 | 0.0 | 2.0 | 0.00 | 0.00 | 0.00 | 86 | 1009.0 |
| 20260507025913 | 87 | 286 | 0.0 | 0.0 | 0.00 | 0.00 | 0.00 | 86 | 1009.0 |
| 20260507025416 | 87 | 260 | 0.0 | 0.0 | 0.00 | 0.00 | 0.00 | 86 | 1009.0 |
| 20260507024914 | 87 | 249 | 0.0 | 1.0 | 0.00 | 0.00 | 0.00 | 86 | 1009.0 |
| 20260507024415 | 87 | 254 | 0.0 | 1.0 | 0.00 | 0.00 | 0.00 | 86 | 1009.0 |
| 20260507023915 | 87 | 236 | 0.0 | 3.0 | 0.00 | 0.00 | 0.00 | 87 | 1009.0 |
| 20260507023417 | 87 | 226 | 0.0 | 3.0 | 0.00 | 0.00 | 0.00 | 86 | 1009.0 |
| 20260507022915 | 87 | 240 | 0.0 | 0.0 | 0.00 | 0.00 | 0.00 | 86 | 1009.0 |
| 20260507022417 | 87 | 146 | 0.0 | 0.0 | 0.00 | 0.00 | 0.00 | 87 | 1009.0 |
| 20260507021915 | 87 | 155 | 0.0 | 0.0 | 0.00 | 0.00 | 0.00 | 87 | 1009.0 |
| 20260507021416 | 86 | 278 | 0.0 | 0.0 | 0.00 | 0.00 | 0.00 | 88 | 1009.0 |
| 20260507020916 | 85 | 278 | 0.0 | 1.0 | 0.00 | 0.00 | 0.00 | 89 | 1009.0 |
| 20260507020416 | 85 | 277 | 0.0 | 1.0 | 0.00 | 0.00 | 0.00 | 89 | 1009.0 |
| 20260507015917 | 84 | 298 | 0.0 | 0.0 | 0.00 | 0.00 | 0.00 | 90 | 1009.0 |
| 20260507015413 | 84 | 333 | 0.0 | 1.0 | 0.00 | 0.00 | 0.00 | 90 | 1008.0 |
| 20260507014917 | 84 | 297 | 0.0 | 1.0 | 0.00 | 0.00 | 0.00 | 91 | 1008.0 |
| 20260507014417 | 84 | 282 | 0.0 | 1.0 | 0.00 | 0.00 | 0.00 | 91 | 1008.0 |
| 20260507013916 | 83 | 282 | 0.0 | 0.0 | 0.00 | 0.00 | 0.00 | 91 | 1008.0 |
| 20260507013415 | 83 | 295 | 0.0 | 0.0 | 0.00 | 0.00 | 0.00 | 91 | 1008.0 |
| 20260507012917 | 83 | 295 | 0.0 | 0.0 | 0.00 | 0.00 | 0.00 | 91 | 1008.0 |
| 20260507012415 | 83 | 295 | 0.0 | 0.0 | 0.00 | 0.00 | 0.00 | 91 | 1008.0 |
| 20260507011917 | 83 | 295 | 0.0 | 0.0 | 0.00 | 0.00 | 0.00 | 91 | 1008.0 |
| 20260507011415 | 83 | 277 | 0.0 | 0.0 | 0.00 | 0.00 | 0.00 | 91 | 1008.0 |
| 20260507010913 | 83 | 281 | 0.0 | 2.0 | 0.00 | 0.00 | 0.00 | 91 | 1008.0 |
| 20260507010417 | 83 | 268 | 0.0 | 2.0 | 0.00 | 0.00 | 0.00 | 91 | 1008.0 |
| 20260507005917 | 83 | 231 | 0.0 | 0.0 | 0.00 | 0.00 | 0.00 | 91 | 1008.0 |
| 20260507005415 | 83 | 231 | 0.0 | 0.0 | 0.00 | 0.00 | 0.00 | 91 | 1008.0 |
| 20260507004914 | 83 | 231 | 0.0 | 0.0 | 0.00 | 0.00 | 0.00 | 91 | 1008.0 |
| 20260507004415 | 83 | 231 | 0.0 | 0.0 | 0.00 | 0.00 | 0.00 | 91 | 1008.0 |
| 20260507003914 | 83 | 231 | 0.0 | 0.0 | 0.00 | 0.00 | 0.00 | 91 | 1007.0 |
| 20260507003414 | 83 | 231 | 0.0 | 0.0 | 0.00 | 0.00 | 0.00 | 91 | 1007.0 |
| 20260507002915 | 83 | 229 | 0.0 | 2.0 | 0.00 | 0.00 | 0.00 | 91 | 1007.0 |
| 20260507002417 | 83 | 229 | 0.0 | 2.0 | 0.00 | 0.00 | 0.00 | 91 | 1007.0 |
| 20260507001915 | 83 | 229 | 0.0 | 0.0 | 0.00 | 0.00 | 0.00 | 91 | 1007.0 |
| 20260507001417 | 83 | 229 | 0.0 | 0.0 | 0.00 | 0.00 | 0.00 | 91 | 1007.0 |
| 20260507000916 | 83 | 229 | 0.0 | 0.0 | 0.00 | 0.00 | 0.00 | 91 | 1007.0 |
| 20260507000420 | 83 | 229 | 0.0 | 0.0 | 0.00 | 0.00 | 0.00 | 91 | 1007.0 |
| 20260506235918 | 83 | 229 | 0.0 | 0.0 | 0.00 | 0.00 | 0.00 | 91 | 1007.0 |
| 20260506235416 | 83 | 229 | 0.0 | 0.0 | 0.00 | 0.00 | 0.00 | 91 | 1007.0 |
| 20260506234915 | 83 | 229 | 0.0 | 0.0 | 0.00 | 0.00 | 0.00 | 91 | 1007.0 |
| 20260506234417 | 83 | 229 | 0.0 | 0.0 | 0.00 | 0.00 | 0.00 | 91 | 1007.0 |
| 20260506233914 | 83 | 229 | 0.0 | 0.0 | 0.00 | 0.00 | 0.00 | 91 | 1007.0 |
| 20260506233415 | 83 | 229 | 0.0 | 0.0 | 0.00 | 0.00 | 0.00 | 91 | 1007.0 |
| 20260506232913 | 83 | 246 | 0.0 | 0.0 | 0.00 | 0.00 | 0.00 | 91 | 1007.0 |
| 20260506232415 | 83 | 245 | 0.0 | 0.0 | 0.00 | 0.00 | 0.00 | 91 | 1007.0 |
| 20260506231917 | 83 | 224 | 0.0 | 0.0 | 0.00 | 0.00 | 0.00 | 91 | 1007.0 |
| 20260506231414 | 83 | 224 | 0.0 | 0.0 | 0.00 | 0.00 | 0.00 | 91 | 1007.0 |
| 20260506230914 | 83 | 224 | 0.0 | 0.0 | 0.00 | 0.00 | 0.00 | 91 | 1007.0 |
| 20260506230415 | 82 | 224 | 0.0 | 0.0 | 0.00 | 0.00 | 0.00 | 91 | 1007.0 |
| 20260506225915 | 82 | 224 | 0.0 | 2.0 | 0.00 | 0.00 | 0.00 | 91 | 1007.0 |
| 20260506225415 | 82 | 232 | 0.0 | 2.0 | 0.00 | 0.00 | 0.00 | 91 | 1007.0 |
| 20260506224915 | 83 | 255 | 0.0 | 0.0 | 0.00 | 0.00 | 0.00 | 91 | 1006.0 |
| 20260506224413 | 83 | 255 | 0.0 | 0.0 | 0.00 | 0.00 | 0.00 | 91 | 1007.0 |
| 20260506223915 | 83 | 227 | 0.0 | 0.0 | 0.00 | 0.00 | 0.00 | 91 | 1006.0 |
| 20260506223418 | 83 | 270 | 0.0 | 0.0 | 0.00 | 0.00 | 0.00 | 91 | 1006.0 |
| 20260506222913 | 83 | 236 | 0.0 | 0.0 | 0.00 | 0.00 | 0.00 | 91 | 1006.0 |
| 20260506222417 | 83 | 222 | 0.0 | 0.0 | 0.00 | 0.00 | 0.00 | 91 | 1006.0 |
| 20260506221914 | 83 | 222 | 0.0 | 0.0 | 0.00 | 0.00 | 0.00 | 91 | 1006.0 |
| 20260506221414 | 83 | 223 | 0.0 | 0.0 | 0.00 | 0.00 | 0.00 | 91 | 1006.0 |
| 20260506220913 | 83 | 222 | 0.0 | 0.0 | 0.00 | 0.00 | 0.00 | 90 | 1006.0 |
| 20260506220417 | 83 | 151 | 0.0 | 0.0 | 0.00 | 0.00 | 0.00 | 90 | 1006.0 |
| 20260506215917 | 83 | 151 | 0.0 | 0.0 | 0.00 | 0.00 | 0.00 | 90 | 1006.0 |
| 20260506215413 | 83 | 151 | 0.0 | 0.0 | 0.00 | 0.00 | 0.00 | 90 | 1006.0 |
| 20260506214914 | 83 | 151 | 0.0 | 0.0 | 0.00 | 0.00 | 0.00 | 90 | 1006.0 |
| 20260506214416 | 83 | 151 | 0.0 | 0.0 | 0.00 | 0.00 | 0.00 | 90 | 1006.0 |
| 20260506213915 | 83 | 167 | 0.0 | 0.0 | 0.00 | 0.00 | 0.00 | 90 | 1006.0 |